Theta_e
312 312 311 311 312 312 313 312 313 312 314 314 315 314 312 313 312 311 311 313 314 313 314 316 317 314 314 313 312 311 310 308 305 305 306 305 305 305 306 303 302 300 301 300
309 311 311 312 312 313 314 315 316 317 318 315 314 313 313 313 313 312 311 311 312 312 313 315 312 310 310 309 307 306 304 301 301 303 305 305 305 303 302 301 301 301 300 297
314 313 314 317 316 316 319 318 318 319 317 315 315 315 313 312 312 313 312 312 311 311 311 308 306 306 305 302 300 300 299 299 302 303 302 302 302 302 300 300 301 300 297 294
311 312 319 315 317 317 317 318 317 317 317 317 316 312 311 312 313 310 312 312 310 307 307 307 304 303 300 298 297 297 297 298 299 300 301 300 300 300 300 300 300 296 294 294
315 314 314 316 317 316 317 319 316 315 316 317 315 315 311 309 308 307 305 304 302 302 300 298 297 296 295 295 295 295 296 298 300 302 300 298 299 300 300 300 297 295 293 292
313 314 315 316 314 314 315 321 316 314 315 315 313 319 312 306 305 302 302 301 299 296 295 295 294 294 294 295 297 298 300 300 301 301 301 301 299 302 301 297 293 292 292 292
314 314 313 312 315 315 322 319 315 314 313 312 311 312 308 304 303 301 299 297 296 296 296 295 295 296 298 300 302 303 304 305 302 299 296 299 304 300 295 292 292 291 292 291
313 314 314 315 315 319 316 315 316 313 313 310 309 307 304 302 301 300 300 300 300 299 299 299 299 302 303 303 304 304 301 297 296 297 303 303 295 292 291 291 291 291 290 288
313 313 312 316 315 316 315 313 313 312 312 312 310 306 304 302 301 300 299 298 297 296 296 296 300 304 302 296 295 296 298 302 302 302 296 293 291 291 291 290 291 289 287 286
315 316 314 315 315 313 312 310 309 309 310 314 312 307 304 304 302 301 299 298 297 297 297 296 297 298 300 299 300 300 300 299 297 295 292 291 290 290 290 291 289 286 286 285
314 313 315 313 312 310 310 308 306 307 308 313 310 305 305 305 302 303 303 302 302 303 303 301 300 299 297 298 299 300 298 296 295 292 290 290 289 290 290 288 286 286 285 284
317 315 315 312 311 309 308 306 305 306 308 310 311 309 306 302 301 300 297 299 302 302 300 298 298 298 298 298 297 298 297 295 292 290 290 289 290 291 288 286 286 285 284 283
315 314 313 311 310 307 306 305 304 304 305 305 305 306 305 300 299 299 300 300 301 299 299 298 299 298 297 296 296 296 296 292 290 289 289 290 290 287 286 285 284 283 282 282
315 314 312 311 309 307 307 305 303 302 301 303 302 301 301 299 296 298 301 300 298 299 299 299 298 298 296 296 296 295 291 290 289 289 290 289 286 285 285 284 284 282 282 281
314 313 312 312 310 307 307 305 304 300 298 298 299 299 299 297 298 299 299 298 300 299 297 297 297 296 295 295 293 291 289 289 289 290 288 286 285 285 284 283 282 282 281 282
312 311 310 309 307 306 304 302 303 299 299 297 297 296 298 298 298 297 298 298 299 297 296 296 297 296 294 292 290 289 289 290 290 287 286 285 284 283 282 282 282 281 281 281
310 308 307 306 306 305 303 302 303 302 299 297 298 297 298 298 297 295 295 296 297 297 296 297 297 294 291 289 289 289 290 289 286 285 285 284 283 282 282 281 281 281 281 280
310 310 309 308 307 305 304 303 305 304 301 300 297 298 297 298 297 295 295 295 296 296 295 294 293 290 289 289 289 290 287 286 285 285 284 283 282 281 281 281 281 281 280 280
308 309 309 308 309 308 307 306 305 305 302 300 298 296 297 298 297 296 296 297 297 296 293 291 290 289 289 289 289 287 286 285 285 284 283 282 281 281 281 281 280 280 280 280
307 308 312 309 309 308 308 307 306 304 301 299 299 298 297 297 297 297 296 296 295 294 292 290 289 289 289 289 287 286 285 284 284 283 282 281 281 281 280 280 280 279 279 279
307 307 308 307 307 308 308 306 304 303 300 300 301 300 299 297 297 297 296 295 292 291 290 289 289 289 289 287 286 285 284 284 283 282 281 281 281 280 280 280 279 279 279 279
305 306 305 305 306 306 305 304 303 303 302 301 300 299 298 297 295 294 294 294 292 290 289 289 290 288 287 286 285 284 284 283 282 281 281 281 280 280 280 280 279 279 279 279
303 303 303 304 304 303 302 302 302 302 301 300 299 298 298 297 296 295 294 291 291 290 289 289 288 286 286 285 285 284 283 282 281 281 281 280 280 280 280 280 279 279 279 279
301 301 301 301 301 302 301 299 300 300 299 298 298 298 297 296 295 293 292 291 290 290 289 289 287 286 285 285 284 283 282 281 281 281 281 280 280 280 280 280 280 279 279 279
300 300 300 299 299 299 300 299 298 297 297 297 296 296 295 295 295 293 291 291 290 290 289 287 286 285 285 284 283 282 281 281 281 281 281 280 280 280 280 280 280 279 280 279
299 299 298 297 298 298 298 297 297 297 297 296 296 295 294 293 293 292 291 290 290 289 287 286 285 285 284 283 282 281 281 281 281 281 281 280 280 280 280 280 280 280 280 280
298 298 298 296 296 296 296 297 297 297 296 297 297 295 294 293 292 291 290 290 289 287 286 285 284 284 283 282 281 281 281 281 281 281 281 280 280 280 280 280 280 280 280 280
Wind_Speed
10 13 9 10 10 13 15 20 12 23 23 26 23 22 18 14 19 15 28 9 6 3 8 11 15 25 29 32 31 31 29 32 35 36 37 36 33 29 25 23 18 12 7 4
5 12 12 12 16 16 19 19 16 19 24 16 25 11 12 12 14 15 17 3 4 5 12 18 24 28 29 29 28 29 34 38 39 39 37 33 29 26 23 18 14 8 4 2
3 7 9 8 9 9 4 7 8 9 17 14 16 13 8 11 15 19 21 15 9 15 22 23 26 27 27 29 32 35 39 40 40 37 34 31 27 23 19 14 10 5 1 2
4 8 4 2 6 6 7 8 8 13 14 11 8 6 16 17 14 8 3 13 16 21 22 20 22 24 29 33 35 38 39 38 35 33 30 27 24 20 16 11 6 3 1 5
2 5 9 3 4 1 1 3 4 8 12 13 4 5 11 19 11 10 14 16 16 16 16 19 24 27 33 34 38 37 36 34 31 27 26 23 19 15 11 6 3 0 3 7
3 3 3 2 4 4 7 2 4 0 8 11 11 4 3 13 8 10 11 13 16 17 22 25 28 31 33 33 34 34 32 30 26 23 19 17 15 10 6 3 1 2 5 9
4 3 6 7 7 8 1 4 4 2 7 11 4 5 8 11 12 10 14 17 19 22 27 30 32 29 31 30 28 27 26 22 20 19 19 14 7 5 4 2 2 5 8 10
3 3 7 1 4 0 2 3 7 3 2 7 8 10 13 18 19 23 24 21 20 25 27 29 31 31 28 27 25 23 24 25 24 18 9 7 7 6 3 2 5 7 9 11
6 6 8 5 8 4 5 5 6 3 3 7 9 11 11 19 20 21 26 25 24 28 30 26 24 24 27 27 26 27 23 17 14 12 11 9 6 3 2 5 7 9 11 13
4 5 9 5 8 6 6 5 7 6 7 10 12 13 13 18 19 21 23 26 28 30 29 28 24 25 28 28 24 21 19 16 13 10 8 6 4 3 6 8 9 11 13 16
6 9 4 7 7 4 5 4 4 1 10 11 13 15 15 18 18 18 21 21 21 25 28 27 25 27 26 22 18 16 15 12 10 7 6 4 4 6 8 9 11 13 15 17
3 4 1 2 3 3 2 1 2 5 10 11 13 15 18 19 20 22 23 20 20 24 26 27 26 24 21 17 13 10 10 9 7 5 4 4 6 7 9 11 13 15 16 17
0 1 2 2 1 1 2 4 5 9 12 13 13 16 18 20 21 23 21 19 22 27 27 27 23 20 18 14 11 9 6 5 3 2 3 5 7 8 10 12 14 15 18 19
8 5 3 5 3 4 5 8 10 12 13 15 17 17 20 23 22 21 22 22 27 28 26 24 22 19 14 11 8 6 5 3 1 3 5 6 8 10 12 14 16 16 15 15
9 8 7 7 8 8 8 9 12 14 15 17 17 19 21 24 23 24 25 28 28 27 25 22 18 16 13 10 7 5 3 1 2 4 5 7 9 12 14 15 16 17 18 17
4 7 7 10 11 12 13 13 14 17 17 19 21 22 23 24 26 28 29 29 29 28 24 19 16 14 11 8 5 3 1 2 4 5 7 9 12 14 15 16 16 17 18 19
5 4 9 12 14 16 15 15 16 20 20 21 22 24 26 28 30 30 29 27 24 23 20 16 14 12 9 6 3 1 1 2 4 6 9 12 14 15 16 16 17 18 18 19
7 8 8 10 18 19 17 17 17 19 21 22 24 27 30 31 32 30 28 26 23 21 17 14 12 10 7 4 1 1 2 4 6 9 11 14 15 15 16 17 18 19 19 19
7 4 4 8 15 17 18 18 17 18 22 25 28 30 30 29 29 28 25 23 21 19 18 14 11 8 5 3 0 1 4 6 9 11 14 15 15 15 17 18 18 19 20 20
3 2 8 7 12 17 19 18 19 22 25 29 29 28 28 27 26 25 23 21 17 14 16 13 10 6 4 2 1 3 6 8 11 13 14 15 16 17 18 18 19 19 19 19
3 4 9 12 15 18 20 20 23 27 28 27 27 27 27 27 25 23 22 21 18 15 13 10 8 5 3 0 2 5 8 11 12 14 15 16 17 18 18 19 19 19 19 18
2 6 11 14 18 20 21 23 24 26 27 27 25 26 26 25 24 21 16 12 17 15 12 9 6 4 1 2 5 7 10 12 13 14 16 17 17 18 18 19 19 19 18 18
3 5 9 14 17 20 22 23 25 26 28 28 27 27 26 24 22 21 20 17 15 14 11 8 5 2 1 4 6 9 11 12 13 15 16 17 17 18 19 19 19 18 17 16
4 5 9 12 17 21 24 25 27 28 28 27 26 24 23 24 22 18 13 16 15 12 9 7 4 1 2 5 8 10 12 13 14 16 17 17 18 18 18 18 17 16 15 15
5 7 10 13 17 21 25 27 29 30 29 27 26 24 22 20 16 18 15 17 14 10 8 6 3 2 4 7 9 11 12 14 15 17 17 17 17 17 17 16 16 16 16 15
5 7 9 13 18 21 24 28 31 32 31 29 25 23 22 20 17 16 17 15 12 10 8 5 2 3 6 8 10 11 13 14 16 16 17 17 17 16 16 16 16 15 15 13
6 8 10 14 15 19 25 29 32 32 30 27 26 25 23 21 17 16 17 15 12 9 6 4 3 4 7 9 10 12 14 16 16 17 16 16 15 15 16 16 16 15 13 11
Wind_Direction
262 270 270 252 238 222 222 239 246 270 278 286 294 292 300 328 1 335 315 195 187 252 216 213 158 153 160 165 175 181 178 170 164 162 162 164 167 166 166 166 164 160 167 189
279 253 256 258 256 251 248 251 252 266 275 276 270 306 300 305 299 285 282 326 248 217 188 166 162 158 164 169 174 175 163 160 160 160 163 164 161 159 159 154 157 162 170 235
273 316 308 269 245 226 201 227 250 280 286 300 305 302 18 337 307 279 255 257 216 174 170 162 162 164 165 164 166 162 160 158 159 161 159 155 154 152 151 152 150 156 185 286
273 288 219 42 129 164 204 234 251 288 313 314 307 55 21 4 345 24 303 200 170 171 175 179 176 176 168 161 159 157 155 155 154 152 149 148 148 147 147 148 145 142 346 311
274 300 285 133 137 355 237 329 250 299 319 326 317 10 29 22 50 77 102 115 139 163 166 164 163 161 156 151 148 149 148 143 141 143 142 141 141 141 139 137 110 316 305 317
7 327 283 94 133 103 106 264 221 274 321 334 344 6 38 35 43 97 124 141 147 140 140 146 133 134 134 141 144 140 137 135 138 138 141 143 142 133 123 116 182 325 320 319
215 260 282 266 133 123 24 276 352 15 333 12 59 66 94 74 63 106 126 129 136 146 148 149 138 139 135 136 138 138 137 137 139 143 143 132 128 126 147 142 351 326 324 328
168 234 257 312 130 88 224 256 280 303 323 86 104 105 105 102 93 93 95 112 133 135 141 134 137 140 143 142 147 146 138 138 138 137 138 134 141 138 111 11 335 330 332 331
199 214 253 204 217 313 281 304 300 269 226 142 128 122 131 133 129 128 129 128 127 127 129 129 139 143 144 145 144 136 135 142 149 136 139 138 123 94 15 346 343 338 330 328
171 259 243 360 34 9 332 303 287 260 209 183 151 141 135 138 141 139 142 142 142 142 141 143 145 143 138 139 145 145 140 137 137 133 124 110 78 17 350 349 339 333 328 325
249 272 320 64 12 336 327 328 317 300 184 190 164 154 154 141 135 133 132 132 142 139 136 134 139 139 137 139 141 143 140 131 126 122 104 66 22 355 343 342 332 329 327 327
257 101 62 139 336 345 279 42 44 111 144 177 183 161 158 147 147 143 147 156 144 142 137 134 140 140 138 138 143 139 131 122 112 91 50 8 345 339 337 334 331 329 330 332
236 191 95 157 82 300 129 129 129 136 156 156 155 159 160 150 152 162 160 153 151 148 143 143 145 142 141 142 140 127 114 113 103 46 350 340 342 336 332 333 333 332 331 335
227 230 173 186 198 172 142 134 131 134 148 162 160 161 159 155 161 161 157 154 152 150 150 151 149 147 145 140 136 130 130 120 39 344 341 339 336 333 331 330 331 336 333 330
221 221 238 205 189 166 152 145 138 135 144 148 158 158 160 159 158 154 151 153 155 155 152 153 153 146 145 146 149 146 137 99 347 343 339 336 332 332 332 335 336 332 332 332
196 214 219 205 189 172 165 156 150 146 146 147 150 156 157 155 150 149 151 155 158 154 152 156 155 147 150 153 151 147 125 354 345 342 337 335 336 336 337 334 332 333 334 334
228 211 205 204 189 178 172 164 159 147 149 156 158 157 154 150 148 149 151 154 156 151 152 154 153 153 155 156 159 133 359 345 340 337 338 337 337 335 333 332 333 334 333 334
264 261 280 236 192 177 170 165 161 157 160 160 156 154 153 152 149 150 151 154 154 149 149 152 153 155 161 161 151 5 352 345 343 340 338 337 334 334 336 335 334 331 331 333
226 251 208 198 189 185 171 165 162 165 160 158 156 157 156 153 152 152 154 157 157 156 152 157 161 164 159 152 164 352 350 343 340 341 339 335 336 338 336 333 331 332 333 334
189 188 187 184 188 183 174 172 169 168 160 162 162 158 156 155 157 156 157 156 155 159 159 163 162 160 167 166 13 345 341 343 342 338 337 340 340 336 334 334 335 334 335 335
199 180 189 189 182 183 189 177 175 171 167 168 167 165 163 161 166 167 164 161 158 164 165 164 167 173 166 67 342 342 343 341 337 339 341 340 337 336 338 338 337 337 337 336
247 195 191 194 192 185 186 184 182 176 172 171 172 171 170 167 167 165 166 175 166 168 172 175 175 170 160 348 344 340 338 337 341 342 339 339 339 340 341 342 341 341 341 338
252 214 201 198 195 189 185 184 181 182 177 175 175 176 177 176 174 173 170 171 176 175 177 178 177 175 339 335 333 334 335 340 342 341 339 340 342 343 343 343 343 341 338 338
259 217 204 198 194 190 183 181 182 181 180 178 179 180 180 176 172 176 180 175 177 181 179 181 183 214 309 323 331 333 337 342 341 339 339 342 342 342 343 341 340 336 341 344
265 232 215 205 197 192 189 183 181 179 180 179 178 178 180 182 192 178 179 180 183 182 184 187 206 267 313 328 330 335 340 338 336 338 341 340 342 344 341 337 337 339 347 344
266 231 216 210 209 201 193 185 183 179 181 177 176 178 180 182 182 185 180 183 185 185 189 197 229 297 321 327 333 336 336 334 334 336 337 338 342 340 336 334 335 342 340 336
269 246 225 214 212 206 198 193 189 183 182 180 176 183 187 184 183 184 183 185 186 189 194 214 267 309 322 329 332 332 332 331 333 334 336 340 338 334 329 330 333 338 336 332